Погода в Чернигове

Погода в Чернигове : погода сейчас, прогноз погоды и архив. Всё, что Вы хотите узнать о погоде в Чернигове!

Хотите узнать прогноз погоды в Чернигове? Тогда Вам сюда: Погода в Чернигове

Поиск расширенной информации на нашем сайте:

Другие новости

Новости СМИ2

Главная страница сайта

Новости сайта

03.07.2017

Напоминаем, что на нашем специализированном сайте Метеоцентр.Азия вы можете получить высокодетализированные автоматические прогнозы погоды по пунктам России, СНГ и мира в авиационном формате (включающие направление и скорость ветра, видимость, явления погоды, количество и форму облачности, нижнюю и верхнюю границу облачности).


Погода в Чернигове - сегодня

Время (UTC), дата Ветер
(°,м/с) 
Видим.   Явления Облачность Т
(°С)
Тd
(°С)
f(%) Тe
(°С)
Pmin
(гПа)
dP
(гПа)
Po
(мм)
O2
(г/м3)
Тmin Tmax R s Состояние
почвы
00 13.01.18 060 (СВ) н/о    10/10 540 м 
[Sc]
-5.6 -9.9 72 -8  1042.5  1.1  770  318           
03 13.01.18 090 (В) н/о    10/10 480 м 
[Sc]
-5.3 -10 69 -8  1042.8  0.3  770  318           
06 13.01.18 090 (В) 10 км    10/10 570 м 
[Sc]
-5.6 -9.9 72 -8  1043.9  771  318  -6.5      <0.5  равномерный
сухой снег
100% 
09 13.01.18 090 (В) 10 км  {ливн. осадки}  9/9 700 м 
[Sc]
-5.9 -11.8 63 -8  1044.7  0.8  772  319           
12 13.01.18 090 (В) 10 км  {ливн. осадки}  10/10 660 м 
[Sc]
-5.7 -12 61 -8  1043.5  -1.2  771  318      0.0     
18 13.01.18 080 (В) н/о    10/10 700 м 
[Sc]
-6.3 -11.8 65 -9  1043.3  -0.1  771  319    -4.8  0.0     
06 14.01.18 060 (СВ) 10 км    10/10 540 м 
[Sc]
-8.3 -12.6 71 -11  1041.5  -0.1  769  321  -8.5      <0.5  равномерный
сухой снег
100% 
09 14.01.18 090 (В) 10 км  слаб. ливневой дождь  8/8 840 м кучево-дожд. 
[Cb cap]
-8.3 -13.6 66 -11  1041.7  -0.2  769  321           
12 14.01.18 090 (В) 10 км  {ливн. осадки}  4/4 1000 м кучево-дожд. 
[Cb cap]
-7.3 -13.8 60 -9  1040  -1.6  768  319      0.0     
15 14.01.18 070 (В) н/о    ясно 
-9 -13.5 70 -9  1040.4  0.3  768  321           
18 14.01.18 тихо ()   н/о    ясно 
-10.8 -13 84 -11  1040.2  -0.3  768  323    -7  0.0     
21 14.01.18 060 (СВ) н/о    ясно 
-10.5 -13 82 -10  1040.4  0.2  768  323           
00 15.01.18 050 (СВ) н/о    ясно 
-11.5 -13.4 86 -11  1039.7  -0.7  768  324           
03 15.01.18 050 (СВ) н/о    ясно 
-12.2 -13.8 88 -12  1039  -0.8  767  325           
06 15.01.18 070 (В) 10 км    ясно 
-12.9 -14.3 89 -13  1038.7  -0.3  767  326  -12.9      равномерный
сухой снег
100% 
09 15.01.18 040 (СВ) 10 км    ясно 
-10.3 -13.5 77 -12  1038.1  -0.4  767  322           
12 15.01.18 040 (СВ) 10 км    ясно 
-7.6 -13.2 64 -9  1036.2  -1.8  765  318           
15 15.01.18 030 (СВ) н/о    3/0 верхняя 
[Ci fib]
-8.1 -12.3 72 -8  1034.7  -1.5  764  318           
18 15.01.18 060 (СВ) н/о    4/0 верхняя 
[Ci fib]
-10.4 -13.3 79 -12  1033.4  -1.4  763  321    -5.7       
00 16.01.18 040 (СВ) н/о    ясно 
-12.2 -14.1 86 -14  1029.6  -2.1  760  322           
03 16.01.18 040 (СВ) н/о    10/0 средняя 
[Ac und]
-10.3 -12.5 84 -12  1026.6  -2.9  758  319           
06 16.01.18 090 (В) 10 км  в посл. час морось  10/10 300 м 
[Sc]
-9.5 -11.6 85 -11  1024.5  -2  757  317  -12.3    0.0     
09 16.01.18 120 (ЮВ) 10 км  в посл. час ливневой снег  6/6 570 м кучево-дожд. 
[Cb cap]
-8.3 -11.1 80 -11  1022.9  -1.5  755  315           
12 16.01.18 120 (ЮВ) 10 км  слаб. ливневой снег  8/8 600 м кучево-дожд. 
[Cb cap]
-8 -11.6 75 -11  1019.7  -3.1  753  314           
15 16.01.18 130 (ЮВ) н/о  слаб. ливневой снег  9/9 600 м кучево-дожд. 
[Cb cap]
-8.2 -10.5 83 -12  1017.6  -2.1  752  313           
Время (UTC), дата Ветер
(°,м/с) 
Видим.   Явления Облачность Т
(°С)
Тd
(°С)
f(%) Тe
(°С)
Pmin
(гПа)
dP
(гПа)
Po
(мм)
O2
(г/м3)
Тmin Tmax R s Состояние
почвы

Для получения пояснительной информации подведите курсор к названию столбца.

ПОГОДА в Чернигове - архив

Всё, что Вы хотите узнать о погоде в Чернигове - удобно и подробно!

Выберите нужную дату (начиная с 1 января 2015* года) и нажмите кнопку "Найти".
Будут отображены архивные сводки погоды по пункту Чернигов, начиная с указанной даты.


Отображать данные в формате CSV (для использования в таблицах Excel)


Внимание! Наш архив погоды предназначен исключительно для личного некоммерческого использования в познавательных целях. Если Вам необходимы официальные справки о состоянии погоды (для производственных, юридических, коммерческих и т.п. целей), обращайтесь в органы Росгидромета.

*Примечание: данная дата относится к архиву по метеостанциям СССР (Россия, СНГ, Балтия).
Архив по метеостанциям Зарубежной Европы и Азии (кроме Китая) хранится 10 дней, по другим регионам земного шара (Китай, Африка, Америка, Австралия, Океания) - 1 день.

Чернигов - район местоположения метеостанции


Название, широта, долгота, высота метеостанции:
Чернигов 51.5°ш. 31.2°д. 141 м над ур. моря [Украина]

Дополнительная информация

В oтличие oт бoльшинства пoгoдных сайтoв мы публикуем пoдрoбную метеoинфoрмацию в детальнoм прoфессиoнальнoм фoрмате.

Характеристики температуры и влажнoсти вoздуха измеряются на высoте 2 м в тени вдали oт зданий и деревьев.
Скoрoсть ветра измеряется на высoте 10 м (на урoвне рoста челoвека скoрoсть ветра ниже в 1.5-2 раза). Если метеoстанция нахoдится в гoрoде или в лесу, тo скoрoсть ветра занижена на 2-4 м/с пo сравнению с oткрытым местoм. Скoрoсть ветра над акватoриями крупных рек и oзёр, а также на вершинах хoлмoв на 2-5 м/с выше, чем в oбычных услoвиях.
Атмoсфернoе давление в разных тoчках местнoсти мoжет значительнo oтличаться oт давления на метеoстанции, в зависимoсти oт услoвий рельефа (при пoдъёме на 10 м давление пoнижается примернo на 1 мм рт.ст.).